Location: La Brionne
(46.1728°N, 1.7849°E)
Time: 06:54:47
(UTC+00:00)

Cosmos 2322 Rocket - Pass Details

Date: 30 October 2021
Orbit: 832 x 851 km, 71.0° (Epoch: 01 December)

Event Time Altitude Azimuth Distance (km) Brightness Sun altitude
Rises 18:16:56 0° 236° (WSW) 3,369 6.4 -17.0°
Reaches altitude 10° 18:19:39 10° 247° (WSW) 2,440 5.7 -17.5°
Maximum altitude 18:24:34 31° 309° (NW) 1,434 3.9 -18.3°
Drops below altitude 10° 18:29:32 10° 11° (N) 2,460 4.5 -19.2°
Sets 18:32:17 0° 21° (NNE) 3,401 5.1 -19.7°
